Regional Weather Roundup
Issued by NWS

Home | Current Version | Previous Version | Graphics & Text | Print | Product List | Glossary On
Versions: 1 2 3 4 5 6 7 8 9 10 11 12 13 14 15 16 17 18 19 20 21 22 23 24 25 26 27 28 29 30 31 32 33 34 35 36 37 38 39 40 41 42 43 44 45 46 47 48 49 50
000
ASUS43 KFSD 050602
RWRSD

WEATHER ROUNDUP FOR SOUTH DAKOTA
NATIONAL WEATHER SERVICE SIOUX FALLS SD
100 AM CDT WED AUG 05 2015

NOTE: "FAIR" INDICATES FEW OR NO CLOUDS BELOW 12,000 FEET WITH NO
SIGNIFICANT WEATHER AND/OR OBSTRUCTIONS TO VISIBILITY.


SDZ001>005-009-010-012>017-050700-
NORTHWEST AND NORTH CENTRAL SOUTH DAKOTA

CITY           SKY/WX    TMP DP  RH WIND       PRES   REMARKS
FAITH            N/A     70  57  63 SE12      29.98R
MOBRIDGE       MOCLDY    70  62  76 SE12      29.98R
$$

SDZ012>016-024>037-041>051-057-063-072>074-050700-
SOUTHWEST AND SOUTH CENTRAL SOUTH DAKOTA

CITY           SKY/WX    TMP DP  RH WIND       PRES   REMARKS
RAPID CTY ARPT CLOUDY    68  60  75 CALM      30.01R
PIERRE         MOCLDY    69  62  78 SE10      29.97F
CUSTER         CLOUDY    62  54  74 NE3       30.14R
ELLSWORTH AFB  CLOUDY    69  58  69 N7        30.01R
PHILIP         MOCLDY    69  66  90 SE6       29.98R
PINE RIDGE     MOCLDY    66  59  78 CALM      30.04R
WINNER         FAIR      68  64  87 SE6       30.00S
$$

SDZ004>011-016>023-039-040-050700-
NORTHEAST SOUTH DAKOTA

CITY           SKY/WX    TMP DP  RH WIND       PRES   REMARKS
ABERDEEN       PTCLDY    62  56  80 E7        30.02R
WATERTOWN      MOCLDY    66  53  63 E5        30.04S
BROOKINGS      CLOUDY    64  55  72 E7        30.06R
$$

SDZ017-020-022-023-036>040-048>070-050700-
SOUTHEAST SOUTH DAKOTA

CITY           SKY/WX    TMP DP  RH WIND       PRES   REMARKS
SIOUX FALLS    MOCLDY    66  59  78 E7        30.03R
HURON          MOCLDY     1  32 100 SE7       30.01R WCI -12
CHAMBERLAIN    CLOUDY    66  63  91 SE7       30.00S
MITCHELL       MOCLDY    66  63  90 E7        30.01S
YANKTON        MOCLDY    66  64  94 E6        29.99S
$$

ABBREVIATIONS USED IN REMARKS
   TC - TEMPERATURE IN CELSIUS
  WCI - WIND CHILL INDEX
   HX - HEAT INDEX
  VSB - VISIBILITY



USA.gov is the U.S. government's official web portal to all federal, state and local government web resources and services.